Home > Weather > Ontario > Past weeks

Flag for USA Past Weather in Ontario, California, USA — Yesterday and Last 2 Weeks

Now
79 °F

Sunny.


Feels Like: 80 °F
Forecast: 62 / 93 °F
Wind: 6 mph from West

Location: Ontario International Airport

Current Time: Aug 28, 2016 at 12:01:31 PM

Latest Report: Aug 28, 2016 at 10:53 AM


Visibility: 8 mi

Pressure: 29.98 "Hg

Humidity: 47%

Dew Point: 57 °F

Location of OntarioLocation

Past Weather in Ontario — Graph

°F

Ontario Temperature Yesterday

Maximum temperature yesterday: 83 °F (at 3:53 PM)
Minimum temperature yesterday: 61 °F (at 12:53 AM)
Average temperature yesterday: 69 °F

High & Low Weather Summary for the Past Weeks

 TemperatureHumidityPressure
High105 °F (Aug 15, 2:53 PM)84% (Aug 26, 12:53 AM)30.01 "Hg (Aug 26, 12:53 AM)
Low61 °F (Aug 27, 12:53 AM)5% (Aug 16, 12:53 PM)29.74 "Hg (Aug 16, 5:53 PM)
Average78 °F45%29.86 "Hg
* Reported Aug 13 10:53 AM — Aug 28 10:53 AM, Ontario, Weather by CustomWeather, © 2016

Note: Actual official high and low records may vary slightly from our data, if they occured in-between our weather recording intervals... More about our weather records

Advertising

Ontario Weather History for the Previous 24 Hours

Scroll right to see more
 ConditionsComfort  
Time TempWeatherWind HumidityBarometerVisibility
10:53 AM
Sun, Aug 28
79 °FSunny.6 mph47%29.98 "Hg8 mi
9:53 AM74 °FSunny.6 mph56%29.99 "Hg7 mi
8:53 AM70 °FSunny.3 mph64%29.99 "Hg5 mi
7:53 AM66 °FSunny.No wind73%29.98 "Hg6 mi
6:53 AM62 °FClear.No wind83%29.98 "Hg6 mi
5:53 AM63 °FClear.3 mph81%29.96 "Hg6 mi
4:53 AM63 °FClear.No wind78%29.95 "Hg9 mi
3:53 AM64 °FClear.No wind78%29.96 "Hg10 mi
2:53 AM64 °FClear.3 mph78%29.96 "Hg10 mi
1:53 AM64 °FClear.6 mph75%29.96 "Hg10 mi
12:53 AM65 °FClear.6 mph76%29.97 "Hg10 mi
11:53 PM
Sat, Aug 27
66 °FClear.5 mph73%29.97 "Hg10 mi
10:53 PM67 °FClear.6 mph71%29.96 "Hg10 mi
9:53 PM69 °FClear.7 mph66%29.95 "Hg10 mi
8:53 PM71 °FClear.8 mph59%29.93 "Hg10 mi
7:53 PM73 °FSunny.8 mph53%29.92 "Hg10 mi
6:53 PM77 °FSunny.10 mph47%29.89 "Hg10 mi
5:53 PM81 °FPassing clouds.13 mph41%29.88 "Hg10 mi
4:53 PM83 °FPassing clouds.13 mph36%29.87 "Hg10 mi
3:53 PM83 °FPassing clouds.12 mph36%29.88 "Hg10 mi
2:53 PM81 °FPassing clouds.9 mph38%29.90 "Hg10 mi
1:53 PM79 °FPassing clouds.8 mph42%29.93 "Hg10 mi
12:53 PM75 °FPassing clouds.6 mph50%29.96 "Hg10 mi
Weather by CustomWeather, © 2016

See weather overviewHow to use our weather pages